[[{"header":{"parameterUnit":"m.s-1","parameterCategory":1,"la1":30.2991,"la2":30.254,"lo1":-89.0895,"lo2":-89.0444,"dy":0.0017,"dx":0.0017,"nx":28,"ny":28,"refTime":"2024-06-18T09:00:00:Z","depth":0,"parameterNumber":2,"parameterNumberName":"U-component_of_WINDS"},"data":[0,0,0,0,0,0,0,0,0,0,0,0,0,0,0,0,0,0,0,0,0,0,0,0,0,0,0,0,0,0,0,0,0,0,0,0,0,0,0,0,0,0,0,0,0,0,0,0,0,0,0,0,0,0,0,0,0,0,-10.933,-10.9329,0,-10.9296,-10.9295,-10.9295,-10.9058,-10.9053,-10.9047,-10.9041,-10.9008,-10.9012,-10.9017,0,0,0,0,0,0,0,0,0,0,0,0,0,-10.9192,-10.9196,-10.933,-10.9329,-10.9329,-10.9296,-10.9295,-10.9295,-10.9059,-10.9052,-10.9045,-10.9039,-10.9006,-10.9012,-10.9017,0,0,0,0,0,0,0,0,0,0,0,0,0,-10.9214,-10.9197,-10.933,-10.9207,-10.9196,-10.9296,-10.9295,-10.9295,-10.9061,-10.9052,-10.9043,-10.9035,-10.9005,-10.9011,-10.9018,-10.9233,0,0,-10.9038,-10.9041,0,0,0,0,0,0,0,0,-10.9213,-10.922,-10.9226,-10.9216,-10.9204,-10.9172,-10.9234,-10.9274,-10.9063,-10.9112,-10.9041,-10.9031,-10.907,-10.9071,-10.9083,-10.9231,-10.923,-10.9039,-10.9043,-10.9046,-10.9048,0,0,0,0,0,0,0,-10.9212,-10.922,-10.9316,-10.9226,-10.9213,-10.9155,-10.9148,-10.9241,-10.914,-10.9107,-10.909,-10.9089,-10.9062,-10.9077,-10.9081,-10.9229,-10.9039,-10.9045,-10.9049,-10.9052,-10.9551,-10.956,0,0,0,0,0,0,-10.9228,-10.922,-10.9317,-10.9315,-10.9187,-10.9164,-10.9157,-10.9191,-10.9138,-10.9122,-10.9097,-10.9078,-10.907,-10.9073,-10.9079,-10.9324,-10.9046,-10.9052,-10.9056,-10.9542,-10.9553,-10.9563,0,0,0,0,0,0,-10.9226,-10.9239,-10.9319,-10.9263,-10.9269,-10.9176,-10.9216,-10.9195,-10.921,-10.913,-10.9111,-10.9131,-10.9063,-10.9069,-10.9196,-10.932,-10.9055,-10.9061,-10.9531,-10.9545,-10.9558,-10.9821,0,0,0,0,0,0,-10.9223,-10.9239,-10.932,-10.9267,-10.9273,-10.9437,-10.9224,-10.9201,-10.9222,-10.9198,-10.9157,-10.9142,-10.9057,-10.9187,-10.9203,-10.9325,-10.9067,-10.9519,-10.9538,-10.9554,-10.98,-10.9842,-10.9877,0,0,0,0,0,-10.9218,-10.9395,-10.9325,-10.9338,-10.9371,-10.9445,-10.9448,-10.9346,-10.9233,-10.9313,-10.9262,-10.9143,-10.9306,-10.9202,-10.9218,-10.9344,-10.9511,-10.9532,-10.9553,-10.9783,-10.9834,-10.9876,0,0,0,0,0,0,-10.9465,-10.9386,-10.9307,-10.9472,-10.9467,-10.9404,-10.9501,-10.9403,-10.943,-10.9406,-10.9279,-10.9272,-10.9417,-10.9393,-10.928,-10.9549,-10.9388,-10.9413,-10.9558,-10.9605,-10.9643,-10.9644,-10.9072,0,0,0,0,0,-10.9539,-10.9605,-10.9532,-10.9685,-10.9687,-10.9596,-10.9624,-10.9546,-10.9535,-10.9532,-10.949,-10.9485,-10.9534,-10.9569,-10.961,-10.9798,-10.9784,-10.9892,-10.9931,-10.9962,-10.9984,-11.008,-11.0126,-10.9631,-10.9631,-10.9631,0,0,-10.9692,-10.9657,-10.9706,-10.9734,-10.972,-10.9791,-10.9595,-10.9679,-10.9729,-10.9545,-10.966,-10.9631,-10.9616,-10.9774,-10.9842,-10.9759,-11.0119,-10.9989,-11.0015,-11.0019,-11.0106,-11.0153,-11.0194,-10.9645,-10.9643,-10.9641,0,0,-11.0005,-10.9987,-11.011,-11.0101,-11.0084,-11.0022,-11.0053,-11.0006,-10.9978,-11.0093,-10.9956,-11.0016,-11.0104,-11.0098,-11.0108,-11.0422,-11.0313,-11.044,-11.0638,-11.0733,-11.0772,-11.0806,-11.0915,-11.0956,-11.0462,-11.0463,-11.0464,0,-11.0196,-11.0297,-11.0187,-11.0279,-11.0294,-11.0131,-11.0255,-11.0253,-11.025,-11.0265,-11.0173,-11.028,-11.0259,-11.0412,-11.0489,-11.0503,-11.0533,-11.0441,-11.0775,-11.0808,-11.0838,-11.0941,-11.0983,-11.0478,-11.0477,-11.0475,-11.0474,0,-11.0532,-11.0605,-11.0707,-11.0707,-11.0735,-11.0844,-11.075,-11.0792,-11.0713,-11.0662,-11.0781,-11.0751,-11.0782,-11.0814,-11.0738,-11.0957,-11.0906,-11.0798,-11.0632,-11.0902,-11.0996,-11.1035,-11.05,-11.0495,-11.049,-11.0486,0,0,-11.0995,-11.0935,-11.0974,-11.0972,-11.0942,-11.0996,-11.1098,-11.1128,-11.1165,-11.1171,-11.1251,-11.1331,-11.123,-11.1241,-11.1163,-11.1247,-11.1495,-11.1127,-11.1125,-11.1194,-11.1732,-11.1811,-11.1858,-11.1425,-11.1432,-11.1438,-11.1732,0,-11.1293,-11.1461,-11.1365,-11.1547,-11.1611,-11.1459,-11.1547,-11.1539,-11.1495,-11.1543,-11.1495,-11.1552,-11.1416,-11.1421,-11.1498,-11.1449,-11.1601,-11.1427,-11.1497,-11.1501,-11.1501,-11.1908,-11.1991,-11.227,-11.1768,-11.1775,-11.1779,0,-11.1661,-11.1681,-11.187,-11.1826,-11.185,-11.1931,-11.195,-11.2,-11.1988,-11.195,-11.1964,-11.1866,-11.1962,-11.1804,-11.1934,-11.1818,-11.1842,-11.1823,-11.1831,-11.183,-11.1653,-11.1914,-11.2357,-11.2398,-11.1837,-11.1832,-11.1828,0,-11.1976,-11.2051,-11.2172,-11.2176,-11.213,-11.219,-11.2174,-11.2153,-11.2177,-11.2196,-11.221,-11.2241,-11.2257,-11.2284,-11.2197,-11.209,-11.2339,-11.2173,-11.2309,-11.2311,-11.2364,-11.2361,-11.2813,-11.2388,-11.2387,-11.2386,-11.2386,0,-11.2316,-11.2436,-11.2312,-11.2387,-11.2517,-11.2408,-11.254,-11.2508,-11.2491,-11.2556,-11.2429,-11.2493,-11.2377,-11.243,-11.2364,-11.2481,-11.249,-11.2461,-11.2441,-11.247,-11.2474,-11.2481,-11.2457,-11.2397,-11.2395,-11.2393,-11.2391,0,-11.2687,-11.261,-11.2731,-11.2678,-11.2668,-11.2766,-11.272,-11.2787,-11.2736,-11.282,-11.2834,-11.2754,-11.2809,-11.2727,-11.2775,-11.273,-11.289,-11.2843,-11.2894,-11.2879,-11.3017,-11.3004,-11.3486,-11.3542,-11.3086,-11.3091,-11.3094,0,-11.2906,-11.2995,-11.2952,-11.2986,-11.2977,-11.3035,-11.3059,-11.2956,-11.2987,-11.298,-11.3048,-11.3093,-11.3123,-11.322,-11.3166,-11.3202,-11.3152,-11.3318,-11.3156,-11.3182,-11.315,-11.3144,-11.3151,-11.335,-11.3356,-11.336,-11.3364,0,-11.3303,-11.3261,-11.33,-11.3327,-11.336,-11.3376,-11.3383,-11.3419,-11.3311,-11.3352,-11.3407,-11.3431,-11.3479,-11.3525,-11.3548,-11.3531,-11.343,-11.3417,-11.3449,-11.3477,-11.3501,-11.3486,-11.298,-11.3404,-11.34,-11.3397,-11.3395,-11.3394,-11.3602,-11.3673,-11.3653,-11.3701,-11.3696,-11.3706,-11.3766,-11.3722,-11.3766,-11.3796,-11.3734,-11.3805,-11.3791,-11.381,-11.3806,-11.386,-11.3786,-11.3835,-11.3846,-11.3858,-11.3878,-11.3497,-11.3864,-11.3863,-11.3861,-11.386,-11.386,0,-11.3988,-11.3968,-11.4014,-11.4028,-11.4066,-11.3969,-11.3973,-11.4011,-11.4074,-11.407,-11.4103,-11.4166,-11.4211,-11.4162,-11.4197,-11.425,-11.4204,-11.4262,-11.4255,-11.4253,-11.3943,-11.3909,-11.4299,-11.4298,-11.4298,-11.4298,-11.4298,-11.4298,-11.4193,-11.4307,-11.4263,-11.4374,-11.4353,-11.4421,-11.4431,-11.4439,-11.4435,-11.4511,-11.4548,-11.4515,-11.4493,-11.4526,-11.4563,-11.4547,-11.4565,-11.4639,-11.4607,-11.4318,-11.4275,-11.4233,-11.4201,-11.4645,-11.4645,-11.4911,-11.4913,-11.4915]},{"header":{"parameterUnit":"m.s-1","parameterCategory":1,"la1":30.2991,"la2":30.254,"lo1":-89.0895,"lo2":-89.0444,"dy":0.0017,"dx":0.0017,"nx":28,"ny":28,"refTime":"2024-06-18T09:00:00:Z","depth":0,"parameterNumber":3,"parameterNumberName":"V-component_of_WINDS"},"data":[0,0,0,0,0,0,0,0,0,0,0,0,0,0,0,0,0,0,0,0,0,0,0,0,0,0,0,0,0,0,0,0,0,0,0,0,0,0,0,0,0,0,0,0,0,0,0,0,0,0,0,0,0,0,0,0,0,0,1.7347,1.7349,0,1.7449,1.745,1.7451,1.7547,1.7548,1.7549,1.755,1.7647,1.7648,1.765,0,0,0,0,0,0,0,0,0,0,0,0,0,1.7231,1.7233,1.7347,1.7349,1.735,1.7449,1.745,1.7451,1.7547,1.7548,1.755,1.7551,1.7647,1.7648,1.765,0,0,0,0,0,0,0,0,0,0,0,0,0,1.7302,1.7233,1.7347,1.7409,1.7416,1.7448,1.745,1.7452,1.7546,1.7548,1.755,1.7552,1.7646,1.7648,1.765,1.7627,0,0,1.7657,1.7658,0,0,0,0,0,0,0,0,1.7298,1.7306,1.7399,1.7405,1.7413,1.7487,1.7445,1.751,1.7546,1.7497,1.755,1.7553,1.7592,1.7599,1.7613,1.7631,1.7635,1.7657,1.7658,1.7659,1.766,0,0,0,0,0,0,0,1.7293,1.7302,1.7387,1.74,1.7409,1.7431,1.7443,1.7458,1.7532,1.7501,1.7508,1.7519,1.7596,1.7611,1.7616,1.7637,1.7657,1.7659,1.766,1.7661,1.7642,1.7641,0,0,0,0,0,0,1.7279,1.7297,1.7384,1.739,1.7359,1.7431,1.7445,1.7461,1.7533,1.7545,1.7518,1.7523,1.7607,1.7614,1.762,1.7598,1.7659,1.7661,1.7662,1.7644,1.7642,1.764,0,0,0,0,0,0,1.7276,1.7286,1.738,1.7346,1.736,1.7432,1.7449,1.7462,1.7478,1.7545,1.7559,1.752,1.7608,1.7617,1.7625,1.7603,1.7662,1.7664,1.7646,1.7644,1.7641,1.7554,0,0,0,0,0,0,1.7272,1.7284,1.7277,1.7345,1.7361,1.7385,1.7448,1.7463,1.7482,1.749,1.7551,1.7562,1.761,1.7622,1.7627,1.7607,1.7666,1.7649,1.7645,1.7642,1.7559,1.7548,1.754,0,0,0,0,0,1.7268,1.7246,1.7276,1.7286,1.7354,1.7383,1.7392,1.745,1.748,1.7473,1.7516,1.756,1.7605,1.7622,1.7629,1.7609,1.765,1.7646,1.7642,1.7563,1.7551,1.754,0,0,0,0,0,0,1.717,1.7256,1.729,1.7291,1.7329,1.7399,1.7392,1.7434,1.7463,1.7469,1.7538,1.7551,1.7551,1.7581,1.7598,1.7591,1.7634,1.7631,1.7571,1.756,1.755,1.7542,1.7668,0,0,0,0,0,1.715,1.7168,1.7241,1.7234,1.7253,1.7319,1.7333,1.7375,1.7417,1.7433,1.7477,1.7514,1.7537,1.755,1.7575,1.7564,1.7579,1.7554,1.7545,1.7536,1.7532,1.753,1.752,1.7627,1.7627,1.7627,0,0,1.7105,1.7155,1.7161,1.7216,1.7251,1.7267,1.7332,1.7345,1.7358,1.7434,1.7446,1.748,1.7526,1.7525,1.7527,1.755,1.7507,1.7531,1.7524,1.7525,1.7525,1.7515,1.7506,1.7624,1.7625,1.7625,0,0,1.7033,1.7073,1.7072,1.7107,1.716,1.7205,1.7204,1.7269,1.7295,1.7309,1.7367,1.7382,1.7419,1.745,1.747,1.7413,1.7455,1.7419,1.7368,1.7365,1.7356,1.7349,1.7329,1.732,1.7416,1.7415,1.7415,0,1.6971,1.7,1.7065,1.7077,1.71,1.7173,1.7172,1.7202,1.7259,1.7272,1.7298,1.7348,1.7384,1.7392,1.7379,1.7393,1.7394,1.7412,1.7353,1.7346,1.734,1.7322,1.7314,1.7411,1.7411,1.7412,1.7412,0,1.6921,1.694,1.6933,1.699,1.7011,1.7016,1.7082,1.7095,1.7136,1.7177,1.719,1.7237,1.7272,1.7278,1.7315,1.7291,1.7304,1.734,1.7384,1.7324,1.7308,1.7301,1.7404,1.7406,1.7407,1.7408,0,0,1.6787,1.6884,1.688,1.6907,1.6973,1.6988,1.6996,1.7035,1.7045,1.7082,1.7091,1.7122,1.7157,1.718,1.7223,1.722,1.7173,1.7257,1.7259,1.7239,1.7149,1.7121,1.7111,1.7201,1.72,1.7199,1.7145,0,1.6726,1.6748,1.6809,1.6812,1.6831,1.6902,1.691,1.695,1.6989,1.701,1.7053,1.7074,1.7118,1.7133,1.7134,1.7178,1.7155,1.7183,1.7208,1.7208,1.7194,1.7103,1.7073,1.7019,1.7139,1.7138,1.7137,0,1.6657,1.6693,1.6699,1.6766,1.6776,1.6782,1.6822,1.6841,1.6888,1.6918,1.6945,1.6993,1.7005,1.7048,1.7065,1.7082,1.7097,1.712,1.7119,1.7123,1.7168,1.7103,1.7003,1.6995,1.7128,1.7128,1.7129,0,1.6559,1.6609,1.662,1.6641,1.6719,1.6722,1.6754,1.6804,1.6823,1.6858,1.6871,1.6906,1.6924,1.695,1.7006,1.7031,1.7017,1.7063,1.704,1.7038,1.7032,1.7031,1.6932,1.7042,1.7042,1.7042,1.7043,0,1.6484,1.6484,1.6578,1.6583,1.6586,1.6656,1.6656,1.6695,1.6739,1.6753,1.6816,1.6827,1.6901,1.6921,1.6965,1.6972,1.698,1.7003,1.7014,1.6997,1.6994,1.7006,1.7011,1.704,1.7041,1.7041,1.7042,0,1.6374,1.6437,1.6453,1.6527,1.6546,1.6545,1.6607,1.6615,1.666,1.6677,1.6685,1.6754,1.6781,1.684,1.6881,1.6911,1.6907,1.6928,1.6892,1.6899,1.6872,1.6873,1.6776,1.6767,1.6883,1.6882,1.6881,0,1.6322,1.6324,1.64,1.6415,1.6446,1.6469,1.6491,1.656,1.6579,1.6635,1.6636,1.6668,1.6698,1.6736,1.6789,1.6821,1.6843,1.6807,1.6848,1.6831,1.6842,1.6841,1.6842,1.6797,1.6796,1.6794,1.6793,0,1.6222,1.6253,1.6283,1.6324,1.6349,1.6384,1.6422,1.643,1.6508,1.6526,1.6556,1.6579,1.6623,1.6654,1.6695,1.6726,1.6772,1.678,1.6777,1.6758,1.6737,1.6748,1.6866,1.6782,1.6783,1.6784,1.6784,1.6785,1.6139,1.6146,1.6201,1.6232,1.6269,1.6303,1.6315,1.6363,1.639,1.6433,1.6472,1.6498,1.6546,1.6606,1.6635,1.6655,1.6678,1.6672,1.6671,1.6668,1.6661,1.6735,1.6663,1.6663,1.6664,1.6664,1.6664,0,1.6042,1.6082,1.6111,1.6164,1.6188,1.6233,1.6278,1.6295,1.6318,1.636,1.6389,1.6423,1.6454,1.6511,1.6546,1.6551,1.6573,1.6558,1.6558,1.6565,1.6638,1.6638,1.654,1.654,1.654,1.654,1.654,1.654,1.5995,1.6009,1.6047,1.6079,1.6119,1.6147,1.6169,1.6201,1.6236,1.6272,1.6299,1.6337,1.6385,1.6425,1.6455,1.6471,1.648,1.6458,1.648,1.6548,1.6559,1.657,1.657,1.646,1.646,1.6405,1.6404,1.6404]}]]